Volver al catálogo

FENGYUN 1C DEB

ActivoSSO
NORAD 30390·DEBRIS·🇨🇳 China

Lanzado May 10, 1999 desde Taiyuan Satellite Launch Center

Loading…

Próximos Pases (próximas 24 horas)

TLE

ActualizadoSource: Space-Track

Época: Sep 13, 2026, 05:01 UTC

1 30390U 99025ADD 26256.20922463  .00002162  00000-0  80674-3 0  9998
2 30390  98.8155 348.3131 0066572  83.3411 307.3875 14.31729959 13098

Sigue FENGYUN 1C DEB en tiempo real con AllMySat

Download on the App Store